Globalstar
NORAD ID: 25307
Int'l Code: 1998-023B
Perigee: 1,420.4 km
Apogee: 1,421.1 km
Inclination: 52.0 °
Period: 114.1 minutes
Semi major axis: 7791 km
Launch date: April 24, 1998
Source: Globalstar (GLOB)
Two Line Element Set (TLE):
1 25307U 98023B 13143.13004925 -.00000107 00000-0 -18751-4 0 2499
2 25307 051.9967 238.0882 0000490 162.9560 266.3707 12.62266331695563
Source: AFSPC
NASA's NSSDC Master Catalog entry for GLOBALSTAR M006